This demonstration page uses our WeatherBlox Daily Observations layout. Learn more.

Left ArrowRight Arrow

39.08367, -84.50855

Hourly Observations for December 15, 2017

Temp ( °F °C ) Dew Point ( °F °C ) Humidity (%) Winds ( mph kmh ) Pressure ( in mb ) Visibility ( mi km ) Precip ( " mm )
12:53 am 00:53 Clear 25 -3.9 17 -8.3 72 72 N N/A 30.11 1020 10 16 N/A
1:53 am 01:53 Clear 25 -3.9 17 -8.3 72 72 N N/A 30.10 1019 10 16 N/A
2:53 am 02:53 Clear 24 -4.4 18 -7.8 77 77 N N/A 30.09 1019 10 16 N/A
3:53 am 03:53 Clear 24 -4.4 18 -7.8 77 77 N N/A 30.09 1019 10 16 N/A
4:53 am 04:53 Clear 24 -4.4 18 -7.8 77 77 N N/A 30.08 1019 10 16 N/A
5:53 am 05:53 Clear 21 -6.1 17 -8.3 85 85 N N/A 30.08 1019 10 16 N/A
6:53 am 06:53 Mostly Clear 21 -6.1 17 -8.3 85 85 N N/A 30.08 1019 10 16 N/A
7:53 am 07:53 Sunny 21 -6.1 17 -8.3 85 85 SSW 6 9 30.08 1019 8 13 N/A
8:53 am 08:53 Mostly Sunny 23 -5 19 -7.2 85 85 S 5 7 30.08 1019 10 16 N/A
9:53 am 09:53 Mostly Cloudy with Haze 27 -2.8 20 -6.7 75 75 SW 7 11 30.09 1019 6 10 N/A
10:53 am 10:53 Cloudy 29 -1.7 20 -6.7 69 69 SW 7 11 30.09 1019 8 13 N/A
11:53 am 11:53 Partly Cloudy 32 undefined 19 -7.2 59 59 SW 12 19 30.06 1018 10 16 N/A
12:53 pm 12:53 Cloudy 33 0.6 20 -6.7 58 58 WSW 15 24 30.04 1017 10 16 N/A
1:53 pm 13:53 Cloudy 33 0.6 20 -6.7 58 58 WSW 10 17 30.04 1017 10 16 N/A
2:53 pm 14:53 Cloudy 34 1.1 21 -6.1 59 59 WSW 12 19 30.03 1017 10 16 N/A
3:53 pm 15:53 Cloudy 34 1.1 21 -6.1 59 59 WSW 15 24 30.04 1017 10 16 N/A
4:53 pm 16:53 Cloudy 34 1.1 22 -5.6 61 61 W 10 17 30.06 1018 10 16 N/A
5:53 pm 17:53 Cloudy 34 1.1 22 -5.6 61 61 W 14 22 30.09 1019 10 16 N/A
6:53 pm 18:53 Cloudy 32 undefined 21 -6.1 64 64 WSW 6 9 30.11 1020 10 16 N/A
7:53 pm 19:53 Cloudy 32 undefined 22 -5.6 66 66 SW 7 11 30.12 1020 10 16 N/A
8:53 pm 20:53 Mostly Cloudy 28 -2.2 21 -6.1 75 75 SSW 7 11 30.14 1021 10 16 N/A
9:53 pm 21:53 Cloudy 33 0.6 23 -5 66 66 SSW 7 11 30.13 1020 10 16 N/A
10:53 pm 22:53 Cloudy 32 undefined 24 -4.4 73 73 SSW 7 11 30.14 1021 10 16 N/A
11:53 pm 23:53 Cloudy 33 0.6 24 -4.4 70 70 SSW 8 13 30.14 1021 10 16 N/A

Powered by AerisWeather